Location: Hermaringen
(48.5952°N, 10.2585°E)
Time: 05:45:06
(UTC+00:00)

Transit 2A - Pass Details

Date: 18 February 2026
Orbit: 590 x 954 km, 66.7° (Epoch: 14 March)

Event Time Altitude Azimuth Distance (km) Brightness Sun altitude
Rises 20:11:22 0° 324° (NW) 3,593 10.3 -34.2°
Reaches altitude 10° 20:13:59 10° 324° (NW) 2,615 9.4 -34.6°
Enters shadow 20:17:51 41° 325° (NW) 1,274 7.3 -35.2°
